,,Stat6,,Stat2,,Stat8,,Stat9,,Stat10,,Wind1,,Wind1,
time,status,PA1M_AVG,status,PR1M_SUM,status,RH1M_AVG,status,SR1M_AVG,status,TA1M_AVG,status,W1dAve1m,status,W1sAve1m,
2004-03-03, 00:00:00,VALID,917.553,VALID,0,VALID,99.8108,VALID,-0.0849042,VALID,20.0232,VALID,5,VALID,1.06516,
2004-03-03, 00:01:00,VALID,917.535,VALID,0,VALID,99.8057,VALID,-0.101885,VALID,20.0137,VALID,359,VALID,1.46928,
2004-03-03, 00:02:00,VALID,917.484,VALID,0,VALID,99.7663,VALID,-0.0339617,VALID,20.0036,VALID,34,VALID,1.52524,
2004-03-03, 00:03:00,VALID,917.494,VALID,0,VALID,99.8133,VALID,-0.0849042,VALID,19.9968,VALID,23,VALID,2.16369,
2004-03-03, 00:04:00,VALID,917.477,VALID,0,VALID,99.8235,VALID,-0.0849042,VALID,19.9934,VALID,16,VALID,2.06715,
2004-03-03, 00:05:00,VALID,917.497,VALID,0,VALID,99.8744,VALID,-0.0849042,VALID,20.0041,VALID,23,VALID,2.27489,
2004-03-03, 00:06:00,VALID,917.47,VALID,0,VALID,99.868,VALID,-0.0849042,VALID,19.9906,VALID,325,VALID,1.25182,
2004-03-03, 00:07:00,VALID,917.462,VALID,0,VALID,99.8362,VALID,-0.101885,VALID,19.9847,VALID,345,VALID,1.24947,
2004-03-03, 00:08:00,VALID,917.479,VALID,0,VALID,99.8299,VALID,-0.118866,VALID,19.9613,VALID,20,VALID,1.99963,
2004-03-03, 00:09:00,VALID,917.465,VALID,0,VALID,99.8616,VALID,-0.0849042,VALID,19.9457,VALID,8,VALID,2.03011,
2004-03-03, 00:10:00,VALID,917.464,VALID,0,VALID,99.7523,VALID,-0.0849042,VALID,19.9039,VALID,7,VALID,1.88437,
2004-03-03, 00:11:00,VALID,917.473,VALID,0,VALID,99.7955,VALID,-0.101885,VALID,19.9039,VALID,15,VALID,2.25801,
2004-03-03, 00:12:00,VALID,917.459,VALID,0,VALID,99.6022,VALID,-0.118866,VALID,19.8485,VALID,22,VALID,1.94243,
2004-03-03, 00:13:00,VALID,917.47,VALID,0,VALID,99.6455,VALID,-0.0679233,VALID,19.8329,VALID,345,VALID,1.25071,
2004-03-03, 00:14:00,VALID,917.471,VALID,0,VALID,99.6951,VALID,-0.0509425,VALID,19.8232,VALID,13,VALID,1.90124,
2004-03-03, 00:15:00,VALID,917.472,VALID,0,VALID,99.5972,VALID,-0.101885,VALID,19.7839,VALID,19,VALID,2.23801,
2004-03-03, 00:16:00,VALID,917.527,VALID,0,VALID,99.6188,VALID,-0.101885,VALID,19.778,VALID,11,VALID,1.89676,
2004-03-03, 00:17:00,VALID,917.563,VALID,0,VALID,99.6124,VALID,-0.0849042,VALID,19.7748,VALID,30,VALID,0.455602,
2004-03-03, 00:18:00,VALID,917.599,VALID,0,VALID,99.5692,VALID,-0.0849042,VALID,19.7651,VALID,14,VALID,1.04557,
2004-03-03, 00:19:00,VALID,917.618,VALID,0,VALID,99.4204,VALID,-0.101885,VALID,19.736,VALID,25,VALID,1.41172,
2004-03-03, 00:20:00,VALID,917.621,VALID,0,VALID,99.4929,VALID,-0.118866,VALID,19.7427,VALID,358,VALID,1.27697,
2004-03-03, 00:21:00,VALID,917.654,VALID,0,VALID,99.5272,VALID,-0.0849042,VALID,19.7358,VALID,323,VALID,0.738567,
2004-03-03, 00:22:00,VALID,917.667,VALID,0,VALID,99.559,VALID,-0.101885,VALID,19.7422,VALID,28,VALID,1.66388,
2004-03-03, 00:23:00,VALID,917.663,VALID,0,VALID,99.5501,VALID,-0.0849042,VALID,19.7325,VALID,21,VALID,1.24395,
2004-03-03, 00:24:00,VALID,917.654,VALID,0,VALID,99.5107,VALID,-0.0849042,VALID,19.7164,VALID,25,VALID,1.64317,
2004-03-03, 00:25:00,VALID,917.664,VALID,0,VALID,99.5399,VALID,-0.101885,VALID,19.7139,VALID,55,VALID,1.21949,
2004-03-03, 00:26:00,VALID,917.666,VALID,0,VALID,99.5043,VALID,-0.0849042,VALID,19.6975,VALID,40,VALID,0.934103,
2004-03-03, 00:27:00,VALID,917.66,VALID,0,VALID,99.5844,VALID,-0.0849042,VALID,19.6918,VALID,29,VALID,0.801953,
2004-03-03, 00:28:00,VALID,917.664,VALID,0.2,VALID,99.5972,VALID,-0.0849042,VALID,19.6687,VALID,190,VALID,0.805469,
2004-03-03, 00:29:00,VALID,917.65,VALID,0.2,VALID,99.6518,VALID,-0.101885,VALID,19.6558,VALID,209,VALID,0.829013,
2004-03-03, 00:30:00,VALID,917.661,VALID,0,VALID,99.6378,VALID,0,VALID,19.6282,VALID,200,VALID,1.14939,
2004-03-03, 00:31:00,VALID,917.646,VALID,0.4,VALID,99.7141,VALID,0,VALID,19.6123,VALID,183,VALID,0.474787,
2004-03-03, 00:32:00,VALID,917.657,VALID,0.2,VALID,99.7968,VALID,0.0169808,VALID,19.6021,VALID,167,VALID,0.936967,
2004-03-03, 00:33:00,VALID,917.687,VALID,0.2,VALID,99.8375,VALID,0,VALID,19.5989,VALID,193,VALID,1.15867,
2004-03-03, 00:34:00,VALID,917.673,VALID,0,VALID,99.882,VALID,0,VALID,19.5991,VALID,196,VALID,1.17568,
2004-03-03, 00:35:00,VALID,917.689,VALID,0.2,VALID,99.8769,VALID,0,VALID,19.576,VALID,239,VALID,1.4362,
2004-03-03, 00:36:00,VALID,917.679,VALID,0,VALID,99.8706,VALID,0,VALID,19.5507,VALID,224,VALID,1.42429,
2004-03-03, 00:37:00,VALID,917.666,VALID,0.2,VALID,99.8629,VALID,0,VALID,19.5375,VALID,265,VALID,1.25418,
2004-03-03, 00:38:00,VALID,917.637,VALID,0,VALID,99.8426,VALID,0,VALID,19.5313,VALID,272,VALID,0.959517,
2004-03-03, 00:39:00,VALID,917.632,VALID,0.2,VALID,99.8845,VALID,0,VALID,19.5343,VALID,316,VALID,0.681362,
2004-03-03, 00:40:00,VALID,917.615,VALID,0,VALID,99.9855,VALID,0.0509425,VALID,19.5827,VALID,16,VALID,0.983073,
2004-03-03, 00:41:00,VALID,917.607,VALID,0.2,VALID,100,VALID,0.0169808,VALID,19.6086,VALID,15,VALID,0.487393,
2004-03-03, 00:42:00,VALID,917.59,VALID,0.2,VALID,100,VALID,0.0169808,VALID,19.6183,VALID,15,VALID,0.104759,
2004-03-03, 00:43:00,VALID,917.551,VALID,0,VALID,100,VALID,0,VALID,19.6212,VALID,73,VALID,0.552871,
2004-03-03, 00:44:00,VALID,917.539,VALID,0.2,VALID,100,VALID,0,VALID,19.6185,VALID,55,VALID,0.396662,
2004-03-03, 00:45:00,VALID,917.518,VALID,0,VALID,100,VALID,0.0339617,VALID,19.6352,VALID,29,VALID,0.517401,
2004-03-03, 00:46:00,VALID,917.48,VALID,0.2,VALID,100,VALID,0.0169808,VALID,19.6513,VALID,34,VALID,0.859933,
2004-03-03, 00:47:00,VALID,917.433,VALID,0,VALID,100,VALID,0.0169808,VALID,19.6481,VALID,89,VALID,0.658482,
2004-03-03, 00:48:00,VALID,917.422,VALID,0,VALID,100,VALID,0.0509425,VALID,19.586,VALID,22,VALID,0.69494,
2004-03-03, 00:49:00,VALID,917.383,VALID,0.2,VALID,100,VALID,0.0339617,VALID,19.5671,VALID,146,VALID,1.08993,
2004-03-03, 00:50:00,VALID,917.375,VALID,0,VALID,99.9825,VALID,0.0169808,VALID,19.5445,VALID,304,VALID,0.619978,
2004-03-03, 00:51:00,VALID,917.373,VALID,0,VALID,99.9837,VALID,0.0169808,VALID,19.5216,VALID,319,VALID,0.658975,
2004-03-03, 00:52:00,VALID,917.343,VALID,0,VALID,99.9977,VALID,0,VALID,19.5286,VALID,27,VALID,1.12682,
2004-03-03, 00:53:00,VALID,917.327,VALID,0.2,VALID,100,VALID,0,VALID,19.5708,VALID,14,VALID,1.40816,
2004-03-03, 00:54:00,VALID,917.313,VALID,0,VALID,100,VALID,0.0169808,VALID,19.5964,VALID,17,VALID,0.582589,
2004-03-03, 00:55:00,VALID,917.285,VALID,0,VALID,100,VALID,0,VALID,19.587,VALID,11,VALID,0.511052,
2004-03-03, 00:56:00,VALID,917.266,VALID,0,VALID,100,VALID,0,VALID,19.5708,VALID,354,VALID,0.29212,
2004-03-03, 00:57:00,VALID,917.249,VALID,0,VALID,100,VALID,0.0169808,VALID,19.5609,VALID,23,VALID,0.988735,
2004-03-03, 00:58:00,VALID,917.215,VALID,0.2,VALID,100,VALID,0,VALID,19.5706,VALID,357,VALID,1.26597,
2004-03-03, 00:59:00,VALID,917.211,VALID,0,VALID,100,VALID,0.0169808,VALID,19.5482,VALID,13,VALID,0.714286,
2004-03-03, 01:00:00,VALID,917.205,VALID,0,VALID,100,VALID,0.0169808,VALID,19.5251,VALID,29,VALID,0.661882,
2004-03-03, 01:01:00,VALID,917.213,VALID,0,VALID,100,VALID,0,VALID,19.5159,VALID,32,VALID,0.489955,
2004-03-03, 01:02:00,VALID,917.23,VALID,0,VALID,99.9944,VALID,0,VALID,19.4901,VALID,278,VALID,0.283612,
2004-03-03, 01:03:00,VALID,917.233,VALID,0.2,VALID,99.9494,VALID,0.0339617,VALID,19.464,VALID,89,VALID,0.427202,
2004-03-03, 01:04:00,VALID,917.259,VALID,0,VALID,99.9916,VALID,0.0169808,VALID,19.4608,VALID,42,VALID,0.602865,
2004-03-03, 01:05:00,VALID,917.279,VALID,0,VALID,100,VALID,0.0169808,VALID,19.4772,VALID,26,VALID,0.105196,
2004-03-03, 01:06:00,VALID,917.281,VALID,0,VALID,100,VALID,0,VALID,19.4804,VALID,26,VALID,0.199219,
2004-03-03, 01:07:00,VALID,917.297,VALID,0,VALID,100,VALID,0,VALID,19.4898,VALID,53,VALID,0.259961,
2004-03-03, 01:08:00,VALID,917.299,VALID,0.2,VALID,100,VALID,0.0169808,VALID,19.4769,VALID,62,VALID,0.260231,
2004-03-03, 01:09:00,VALID,917.293,VALID,0,VALID,100,VALID,0,VALID,19.4444,VALID,9,VALID,0.418555,
2004-03-03, 01:10:00,VALID,917.276,VALID,0,VALID,100,VALID,0,VALID,19.4253,VALID,233,VALID,1.17604,
2004-03-03, 01:11:00,VALID,917.247,VALID,0.2,VALID,99.973,VALID,0,VALID,19.3644,VALID,246,VALID,0.988991,
2004-03-03, 01:12:00,VALID,917.203,VALID,0,VALID,99.9868,VALID,0.0169808,VALID,19.3219,VALID,246,VALID,0.474653,
2004-03-03, 01:13:00,VALID,917.171,VALID,0,VALID,100,VALID,0,VALID,19.3281,VALID,6,VALID,0.733203,
2004-03-03, 01:14:00,VALID,917.142,VALID,0,VALID,100,VALID,0,VALID,19.3674,VALID,28,VALID,0.951672,
2004-03-03, 01:15:00,VALID,917.132,VALID,0,VALID,100,VALID,0,VALID,19.3897,VALID,18,VALID,0.712391,
2004-03-03, 01:16:00,VALID,917.123,VALID,0.2,VALID,100,VALID,0.0169808,VALID,19.4421,VALID,20,VALID,0.582031,
2004-03-03, 01:17:00,VALID,917.113,VALID,0,VALID,100,VALID,0,VALID,19.4707,VALID,23,VALID,0.350632,
2004-03-03, 01:18:00,VALID,917.098,VALID,0,VALID,100,VALID,0,VALID,19.4677,VALID,30,VALID,0.12221,
2004-03-03, 01:19:00,VALID,917.06,VALID,0,VALID,100,VALID,0.0169808,VALID,19.4153,VALID,44,VALID,0.683222,
2004-03-03, 01:20:00,VALID,917.048,VALID,0.2,VALID,100,VALID,0,VALID,19.3922,VALID,9,VALID,0.631541,
2004-03-03, 01:21:00,VALID,917.061,VALID,0,VALID,100,VALID,0.0169808,VALID,19.4322,VALID,350,VALID,0.216933,
2004-03-03, 01:22:00,VALID,917.062,VALID,0,VALID,100,VALID,0,VALID,19.4253,VALID,258,VALID,0.490734,
2004-03-03, 01:23:00,VALID,917.055,VALID,0,VALID,100,VALID,0.0169808,VALID,19.3964,VALID,146,VALID,0.370206,
2004-03-03, 01:24:00,VALID,917.049,VALID,0,VALID,100,VALID,0.0169808,VALID,19.3798,VALID,127,VALID,0.0919744,
2004-03-03, 01:25:00,VALID,917.025,VALID,0.2,VALID,100,VALID,0.0169808,VALID,19.3838,VALID,69,VALID,0.638867,
2004-03-03, 01:26:00,VALID,917.029,VALID,0,VALID,100,VALID,0.0169808,VALID,19.4064,VALID,58,VALID,0.174107,
2004-03-03, 01:27:00,VALID,917.014,VALID,0,VALID,100,VALID,0.0509425,VALID,19.4096,VALID,58,VALID,0.0721294,
2004-03-03, 01:28:00,VALID,916.984,VALID,0,VALID,100,VALID,0.0169808,VALID,19.393,VALID,43,VALID,0.17223,
2004-03-03, 01:29:00,VALID,916.966,VALID,0,VALID,100,VALID,0,VALID,19.393,VALID,357,VALID,0.474276,
2004-03-03, 01:30:00,VALID,916.936,VALID,0.2,VALID,100,VALID,-0.0849042,VALID,19.4071,VALID,356,VALID,0.362571,
2004-03-03, 01:31:00,VALID,916.898,VALID,0,VALID,100,VALID,-0.101885,VALID,19.4394,VALID,356,VALID,0.377951,
2004-03-03, 01:32:00,VALID,916.895,VALID,0,VALID,100,VALID,-0.0679233,VALID,19.4846,VALID,356,VALID,0.0952381,
2004-03-03, 01:33:00,VALID,916.895,VALID,0,VALID,100,VALID,-0.101885,VALID,19.4491,VALID,218,VALID,0.423118,
2004-03-03, 01:34:00,VALID,916.865,VALID,0,VALID,100,VALID,-0.0849042,VALID,19.4108,VALID,200,VALID,0.731882,
2004-03-03, 01:35:00,VALID,916.853,VALID,0.2,VALID,100,VALID,-0.0849042,VALID,19.3713,VALID,207,VALID,0.349023,
2004-03-03, 01:36:00,VALID,916.847,VALID,0,VALID,100,VALID,-0.0849042,VALID,19.3723,VALID,207,VALID,0.0128348,
2004-03-03, 01:37:00,VALID,916.847,VALID,0,VALID,100,VALID,-0.101885,VALID,19.349,VALID,207,VALID,0.403125,
2004-03-03, 01:38:00,VALID,916.853,VALID,0,VALID,100,VALID,-0.0679233,VALID,19.3202,VALID,214,VALID,0.624238,
2004-03-03, 01:39:00,VALID,916.881,VALID,0,VALID,100,VALID,-0.101885,VALID,19.3107,VALID,217,VALID,0.533612,
2004-03-03, 01:40:00,VALID,916.896,VALID,0,VALID,100,VALID,-0.0849042,VALID,19.3068,VALID,228,VALID,0.365854,
2004-03-03, 01:41:00,VALID,916.905,VALID,0,VALID,100,VALID,-0.101885,VALID,19.3236,VALID,229,VALID,0.349023,
2004-03-03, 01:42:00,VALID,916.897,VALID,0.2,VALID,100,VALID,-0.101885,VALID,19.3236,VALID,233,VALID,0.17731,
2004-03-03, 01:43:00,VALID,916.911,VALID,0,VALID,100,VALID,-0.0849042,VALID,19.3529,VALID,257,VALID,0.200335,
2004-03-03, 01:44:00,VALID,916.896,VALID,0,VALID,100,VALID,-0.0849042,VALID,19.3726,VALID,271,VALID,0.0227108,
2004-03-03, 01:45:00,VALID,916.877,VALID,0,VALID,100,VALID,0,VALID,19.4094,VALID,271,VALID,0,
2004-03-03, 01:46:00,VALID,916.84,VALID,0,VALID,100,VALID,-0.0169808,VALID,19.422,VALID,224,VALID,0.334985,
2004-03-03, 01:47:00,VALID,916.819,VALID,0,VALID,100,VALID,-0.0169808,VALID,19.4066,VALID,210,VALID,0.530362,
2004-03-03, 01:48:00,VALID,916.78,VALID,0,VALID,100,VALID,0,VALID,19.3537,VALID,309,VALID,0.593559,
2004-03-03, 01:49:00,VALID,916.745,VALID,0,VALID,100,VALID,-0.0169808,VALID,19.3353,VALID,286,VALID,0.762536,
2004-03-03, 01:50:00,VALID,916.689,VALID,0.2,VALID,100,VALID,-0.0169808,VALID,19.3095,VALID,241,VALID,0.797433,
2004-03-03, 01:51:00,VALID,916.644,VALID,0,VALID,100,VALID,-0.0169808,VALID,19.271,VALID,274,VALID,1.00856,
2004-03-03, 01:52:00,VALID,916.592,VALID,0,VALID,100,VALID,0,VALID,19.2415,VALID,285,VALID,0.508384,
2004-03-03, 01:53:00,VALID,916.581,VALID,0,VALID,100,VALID,0,VALID,19.2415,VALID,289,VALID,0.0736607,
2004-03-03, 01:54:00,VALID,916.563,VALID,0,VALID,100,VALID,-0.0169808,VALID,19.2737,VALID,334,VALID,0.365885,
2004-03-03, 01:55:00,VALID,916.569,VALID,0,VALID,100,VALID,-0.0169808,VALID,19.3127,VALID,12,VALID,0.0274346,
2004-03-03, 01:56:00,VALID,916.559,VALID,0,VALID,100,VALID,0,VALID,19.3189,VALID,106,VALID,0.783854,
2004-03-03, 01:57:00,VALID,916.594,VALID,0,VALID,100,VALID,-0.0169808,VALID,19.2767,VALID,242,VALID,0.550686,
2004-03-03, 01:58:00,VALID,916.623,VALID,0,VALID,100,VALID,0,VALID,19.2839,VALID,327,VALID,0.335938,
2004-03-03, 01:59:00,VALID,916.622,VALID,0,VALID,100,VALID,-0.0339617,VALID,19.277,VALID,29,VALID,1.18559,
2004-03-03, 02:00:00,VALID,916.645,VALID,0,VALID,100,VALID,0,VALID,19.2742,VALID,18,VALID,0.955357,
2004-03-03, 02:01:00,VALID,916.661,VALID,0,VALID,100,VALID,-0.0339617,VALID,19.2896,VALID,17,VALID,1.25167,
2004-03-03, 02:02:00,VALID,916.682,VALID,0,VALID,100,VALID,-0.0339617,VALID,19.313,VALID,15,VALID,0.947218,
2004-03-03, 02:03:00,VALID,916.708,VALID,0,VALID,100,VALID,-0.0169808,VALID,19.3229,VALID,17,VALID,1.5867,
2004-03-03, 02:04:00,VALID,916.74,VALID,0,VALID,100,VALID,0,VALID,19.3028,VALID,15,VALID,1.82755,
2004-03-03, 02:05:00,VALID,916.753,VALID,0,VALID,100,VALID,-0.0169808,VALID,19.2638,VALID,13,VALID,1.71626,
2004-03-03, 02:06:00,VALID,916.772,VALID,0,VALID,100,VALID,-0.0339617,VALID,19.2419,VALID,19,VALID,2.14666,
2004-03-03, 02:07:00,VALID,916.781,VALID,0,VALID,100,VALID,-0.0339617,VALID,19.2124,VALID,1,VALID,2.27468,
2004-03-03, 02:08:00,VALID,916.774,VALID,0.2,VALID,100,VALID,-0.0509425,VALID,19.1577,VALID,18,VALID,2.38542,
2004-03-03, 02:09:00,VALID,916.789,VALID,0,VALID,100,VALID,-0.0679233,VALID,19.1518,VALID,19,VALID,1.76362,
2004-03-03, 02:10:00,VALID,916.797,VALID,0,VALID,100,VALID,-0.0509425,VALID,19.1543,VALID,23,VALID,1.753,
2004-03-03, 02:11:00,VALID,916.803,VALID,0,VALID,100,VALID,0,VALID,19.158,VALID,16,VALID,1.89968,
2004-03-03, 02:12:00,VALID,916.806,VALID,0,VALID,100,VALID,-0.0169808,VALID,19.1384,VALID,1,VALID,1.01526,
2004-03-03, 02:13:00,VALID,916.794,VALID,0,VALID,100,VALID,0,VALID,19.0991,VALID,16,VALID,1.81726,
2004-03-03, 02:14:00,VALID,916.788,VALID,0,VALID,100,VALID,-0.0169808,VALID,19.0579,VALID,13,VALID,2.39174,
2004-03-03, 02:15:00,VALID,916.783,VALID,0,VALID,100,VALID,-0.0509425,VALID,19.045,VALID,23,VALID,1.81055,
2004-03-03, 02:16:00,VALID,916.764,VALID,0,VALID,100,VALID,-0.0169808,VALID,19.0256,VALID,22,VALID,1.58213,
2004-03-03, 02:17:00,VALID,916.763,VALID,0,VALID,100,VALID,-0.0339617,VALID,19.0224,VALID,3,VALID,1.18269,
2004-03-03, 02:18:00,VALID,916.772,VALID,0,VALID,100,VALID,-0.0339617,VALID,19.0318,VALID,17,VALID,1.15698,
2004-03-03, 02:19:00,VALID,916.776,VALID,0,VALID,100,VALID,0,VALID,19.0579,VALID,39,VALID,0.977679,
2004-03-03, 02:20:00,VALID,916.761,VALID,0,VALID,100,VALID,-0.0339617,VALID,19.0447,VALID,39,VALID,1.32274,
2004-03-03, 02:21:00,VALID,916.787,VALID,0,VALID,100,VALID,0,VALID,19.0256,VALID,43,VALID,0.445313,
2004-03-03, 02:22:00,VALID,916.784,VALID,0,VALID,100,VALID,-0.0169808,VALID,19.0092,VALID,27,VALID,0.567587,
2004-03-03, 02:23:01,VALID,916.777,VALID,0,VALID,100,VALID,0,VALID,18.9933,VALID,144,VALID,0.61101,
2004-03-03, 02:24:00,VALID,916.774,VALID,0,VALID,100,VALID,-0.0169808,VALID,18.9899,VALID,16,VALID,1.2609,
2004-03-03, 02:25:00,VALID,916.781,VALID,0,VALID,100,VALID,0,VALID,19.0095,VALID,61,VALID,0.81343,
2004-03-03, 02:26:00,VALID,916.775,VALID,0,VALID,100,VALID,0,VALID,19.0417,VALID,318,VALID,0.688045,
2004-03-03, 02:27:00,VALID,916.797,VALID,0,VALID,100,VALID,-0.0169808,VALID,19.012,VALID,38,VALID,1.37148,
2004-03-03, 02:28:00,VALID,916.82,VALID,0,VALID,100,VALID,0,VALID,19.0286,VALID,19,VALID,0.892187,
2004-03-03, 02:29:00,VALID,916.828,VALID,0,VALID,100,VALID,-0.0169808,VALID,19.0189,VALID,161,VALID,0.51028,
2004-03-03, 02:30:01,VALID,916.853,VALID,0,VALID,100,VALID,-0.0169808,VALID,18.9767,VALID,83,VALID,0.423209,
2004-03-03, 02:31:00,VALID,916.869,VALID,0.2,VALID,100,VALID,-0.0339617,VALID,18.9804,VALID,141,VALID,0.398438,
2004-03-03, 02:32:00,VALID,916.888,VALID,0,VALID,100,VALID,0,VALID,18.9806,VALID,69,VALID,0.793968,
2004-03-03, 02:33:00,VALID,916.872,VALID,0,VALID,100,VALID,0,VALID,18.9832,VALID,2,VALID,1.08866,
2004-03-03, 02:34:00,VALID,916.891,VALID,0,VALID,100,VALID,0.0169808,VALID,19.0025,VALID,21,VALID,1.47691,
2004-03-03, 02:35:00,VALID,916.871,VALID,0.2,VALID,100,VALID,0,VALID,19.0154,VALID,15,VALID,1.86858,
2004-03-03, 02:36:00,VALID,916.84,VALID,0,VALID,100,VALID,0,VALID,19.0065,VALID,22,VALID,1.27813,
2004-03-03, 02:37:00,VALID,916.825,VALID,0.2,VALID,100,VALID,-0.0509425,VALID,18.9871,VALID,15,VALID,2.22656,
2004-03-03, 02:38:00,VALID,916.832,VALID,0,VALID,100,VALID,-0.0169808,VALID,18.9839,VALID,8,VALID,1.59702,
2004-03-03, 02:39:00,VALID,916.822,VALID,0.2,VALID,100,VALID,-0.0339617,VALID,18.9357,VALID,7,VALID,2.04045,
2004-03-03, 02:40:00,VALID,916.802,VALID,0,VALID,100,VALID,-0.0339617,VALID,18.9516,VALID,18,VALID,1.30814,
2004-03-03, 02:41:00,VALID,916.807,VALID,0.2,VALID,100,VALID,-0.0339617,VALID,18.9476,VALID,47,VALID,1.07217,
2004-03-03, 02:42:01,VALID,916.807,VALID,0,VALID,100,VALID,-0.0169808,VALID,18.9442,VALID,21,VALID,1.68368,
2004-03-03, 02:43:00,VALID,916.799,VALID,0,VALID,100,VALID,0,VALID,18.9543,VALID,19,VALID,1.81917,
2004-03-03, 02:44:01,VALID,916.775,VALID,0,VALID,100,VALID,0,VALID,18.9447,VALID,19,VALID,1.37708,
2004-03-03, 02:45:00,VALID,916.766,VALID,0,VALID,100,VALID,0.0169808,VALID,18.9479,VALID,20,VALID,1.85007,
2004-03-03, 02:46:00,VALID,916.728,VALID,0,VALID,100,VALID,0.0679233,VALID,18.9516,VALID,26,VALID,1.26097,
2004-03-03, 02:47:00,VALID,916.695,VALID,0.2,VALID,100,VALID,0.0169808,VALID,18.9484,VALID,4,VALID,1.40206,
2004-03-03, 02:48:01,VALID,916.662,VALID,0,VALID,100,VALID,0.0169808,VALID,18.9225,VALID,294,VALID,0.849702,
2004-03-03, 02:49:01,VALID,916.629,VALID,0,VALID,100,VALID,0.0339617,VALID,18.9221,VALID,5,VALID,1.30301,
2004-03-03, 02:50:01,VALID,916.612,VALID,0,VALID,100,VALID,0.0169808,VALID,18.9094,VALID,39,VALID,1.2517,
2004-03-03, 02:51:00,VALID,916.589,VALID,0,VALID,100,VALID,-0.0169808,VALID,18.8803,VALID,339,VALID,0.570845,
2004-03-03, 02:52:00,VALID,916.562,VALID,0,VALID,100,VALID,0,VALID,18.8741,VALID,2,VALID,1.07249,
2004-03-03, 02:53:00,VALID,916.512,VALID,0,VALID,100,VALID,0,VALID,18.8609,VALID,49,VALID,1.72124,
2004-03-03, 02:54:00,VALID,916.515,VALID,0,VALID,100,VALID,0.0339617,VALID,18.8446,VALID,345,VALID,1.10608,
2004-03-03, 02:55:00,VALID,916.506,VALID,0,VALID,100,VALID,0,VALID,18.8386,VALID,15,VALID,2.36875,
2004-03-03, 02:56:00,VALID,916.509,VALID,0,VALID,100,VALID,0.0169808,VALID,18.8091,VALID,354,VALID,1.28534,
2004-03-03, 02:57:00,VALID,916.493,VALID,0,VALID,100,VALID,0,VALID,18.7931,VALID,14,VALID,2.07118,
2004-03-03, 02:58:00,VALID,916.503,VALID,0,VALID,100,VALID,0.0339617,VALID,18.7639,VALID,14,VALID,2.00454,
2004-03-03, 02:59:00,VALID,916.498,VALID,0,VALID,100,VALID,0,VALID,18.7579,VALID,28,VALID,1.59144,
2004-03-03, 03:00:01,VALID,916.52,VALID,0,VALID,100,VALID,0.0339617,VALID,18.7316,VALID,16,VALID,1.83158,
2004-03-03, 03:01:00,VALID,916.539,VALID,0,VALID,100,VALID,0.0169808,VALID,18.6769,VALID,17,VALID,2.11272,
2004-03-03, 03:02:01,VALID,916.563,VALID,0,VALID,100,VALID,0.0169808,VALID,18.6864,VALID,27,VALID,0.702762,
2004-03-03, 03:03:01,VALID,916.53,VALID,0,VALID,100,VALID,0,VALID,18.6709,VALID,28,VALID,2.5658,
2004-03-03, 03:04:01,VALID,916.555,VALID,0,VALID,100,VALID,0,VALID,18.6451,VALID,9,VALID,2.08176,
2004-03-03, 03:05:00,VALID,916.578,VALID,0,VALID,100,VALID,0,VALID,18.5999,VALID,350,VALID,0.947011,
2004-03-03, 03:06:00,VALID,916.554,VALID,0,VALID,100,VALID,0,VALID,18.6034,VALID,358,VALID,1.33073,
2004-03-03, 03:07:00,VALID,916.555,VALID,0.2,VALID,100,VALID,0,VALID,18.596,VALID,16,VALID,1.51181,
2004-03-03, 03:08:01,VALID,916.554,VALID,0,VALID,100,VALID,0.0169808,VALID,18.6126,VALID,31,VALID,1.6782,
2004-03-03, 03:09:01,VALID,916.57,VALID,0,VALID,100,VALID,0.0339617,VALID,18.6158,VALID,18,VALID,2.72754,
2004-03-03, 03:10:00,VALID,916.597,VALID,0,VALID,100,VALID,0.0169808,VALID,18.5512,VALID,17,VALID,2.30178,
2004-03-03, 03:11:00,VALID,916.597,VALID,0,VALID,100,VALID,0.0169808,VALID,18.5381,VALID,23,VALID,2.00074,
2004-03-03, 03:12:01,VALID,916.614,VALID,0,VALID,100,VALID,0.0339617,VALID,18.5448,VALID,8,VALID,2.80202,
2004-03-03, 03:13:01,VALID,916.634,VALID,0,VALID,100,VALID,0.0169808,VALID,18.5351,VALID,340,VALID,1.64063,
2004-03-03, 03:14:00,VALID,916.636,VALID,0,VALID,100,VALID,0.0169808,VALID,18.4957,VALID,23,VALID,2.91578,
2004-03-03, 03:15:01,VALID,916.66,VALID,0,VALID,100,VALID,-0.0679233,VALID,18.4779,VALID,14,VALID,2.49873,
2004-03-03, 03:16:00,VALID,916.663,VALID,0.2,VALID,100,VALID,-0.101885,VALID,18.3972,VALID,19,VALID,1.81001,
2004-03-03, 03:17:01,VALID,916.656,VALID,0,VALID,100,VALID,-0.0679233,VALID,18.4039,VALID,35,VALID,1.2779,
2004-03-03, 03:18:00,VALID,916.655,VALID,0,VALID,100,VALID,-0.101885,VALID,18.3979,VALID,351,VALID,1.82951,
2004-03-03, 03:19:00,VALID,916.656,VALID,0,VALID,100,VALID,-0.101885,VALID,18.3652,VALID,17,VALID,2.18695,
2004-03-03, 03:20:01,VALID,916.659,VALID,0,VALID,100,VALID,-0.0849042,VALID,18.3557,VALID,347,VALID,1.64941,
2004-03-03, 03:21:01,VALID,916.668,VALID,0,VALID,100,VALID,-0.0849042,VALID,18.3264,VALID,16,VALID,1.89974,
2004-03-03, 03:22:00,VALID,916.648,VALID,0,VALID,100,VALID,-0.0509425,VALID,18.2971,VALID,16,VALID,2.03477,
2004-03-03, 03:23:01,VALID,916.66,VALID,0,VALID,100,VALID,-0.101885,VALID,18.2911,VALID,12,VALID,0.878018,
2004-03-03, 03:24:00,VALID,916.634,VALID,0,VALID,100,VALID,-0.0679233,VALID,18.3331,VALID,26,VALID,1.14539,
2004-03-03, 03:25:00,VALID,916.634,VALID,0,VALID,100,VALID,-0.0679233,VALID,18.3529,VALID,24,VALID,1.39139,
2004-03-03, 03:26:01,VALID,916.585,VALID,0,VALID,100,VALID,-0.0679233,VALID,18.3363,VALID,21,VALID,1.20712,
2004-03-03, 03:27:00,VALID,916.571,VALID,0,VALID,100,VALID,-0.0509425,VALID,18.349,VALID,7,VALID,0.960392,
2004-03-03, 03:28:00,VALID,916.544,VALID,0,VALID,100,VALID,-0.101885,VALID,18.3331,VALID,4,VALID,1.27246,
2004-03-03, 03:29:01,VALID,916.518,VALID,0,VALID,100,VALID,-0.0679233,VALID,18.3336,VALID,10,VALID,0.992746,
2004-03-03, 03:30:01,VALID,916.48,VALID,0.2,VALID,100,VALID,-0.0339617,VALID,18.3423,VALID,15,VALID,1.03997,
2004-03-03, 03:31:00,VALID,916.436,VALID,0,VALID,100,VALID,0,VALID,18.3225,VALID,12,VALID,1.76441,
2004-03-03, 03:32:00,VALID,916.419,VALID,0,VALID,100,VALID,0.0169808,VALID,18.3161,VALID,28,VALID,1.41555,
2004-03-03, 03:33:00,VALID,916.389,VALID,0,VALID,100,VALID,0.0169808,VALID,18.3096,VALID,11,VALID,1.91733,
2004-03-03, 03:34:00,VALID,916.334,VALID,0,VALID,100,VALID,0,VALID,18.284,VALID,13,VALID,1.97303,
2004-03-03, 03:35:01,VALID,916.339,VALID,0,VALID,100,VALID,0.0169808,VALID,18.2709,VALID,29,VALID,2.08505,
2004-03-03, 03:36:00,VALID,916.318,VALID,0,VALID,100,VALID,0,VALID,18.2575,VALID,13,VALID,1.23924,
2004-03-03, 03:37:01,VALID,916.312,VALID,0,VALID,100,VALID,0,VALID,18.2672,VALID,12,VALID,1.30052,
2004-03-03, 03:38:00,VALID,916.305,VALID,0,VALID,100,VALID,0.0169808,VALID,18.2448,VALID,21,VALID,1.75556,
2004-03-03, 03:39:00,VALID,916.293,VALID,0,VALID,100,VALID,0,VALID,18.2642,VALID,20,VALID,2.09032,
2004-03-03, 03:40:01,VALID,916.271,VALID,0,VALID,100,VALID,0,VALID,18.2517,VALID,30,VALID,1.52809,
2004-03-03, 03:41:01,VALID,916.272,VALID,0,VALID,100,VALID,-0.0169808,VALID,18.242,VALID,16,VALID,1.88151,
2004-03-03, 03:42:01,VALID,916.236,VALID,0,VALID,100,VALID,0.0169808,VALID,18.2453,VALID,336,VALID,0.776215,